Location: Aalen
(48.8330°N, 10.1000°E)
Time: 03:25:35
(UTC+01:00)

Envisat - Pass Details

Date: 01 December 2022
Orbit: 763 x 765 km, 98.2° (Epoch: 28 January)

Event Time Altitude Azimuth Distance (km) Brightness Sun altitude
Rises 06:33:07 0° 360° (N) 3,246 6.1 -12.4°
Reaches altitude 10° 06:36:33 10° 336° (NNW) 2,315 5.1 -11.8°
Enters shadow 06:38:46 14° 310° (NW) 2,058 4.6 -11.5°
